Terug naar catalogus

METEOSAT 4 AKM

ActiefMEO
NORAD 20800·ROCKET BODY·🇪🇺 EU

Gelanceerd Mar 6, 1989 vanaf Guiana Space Centre

Loading…

Volgende Passages (komende 24 uur)

TLE

VersSource: Space-Track

Epoch: Sep 14, 2026, 13:55 UTC

1 20800U 89020E   26257.58026372 -.00000149  00000-0  00000-0 0  9999
2 20800  10.8888 330.7955 0132807 257.9380 137.7080  1.00426363117103

Volg METEOSAT 4 AKM in realtime met AllMySat

Download on the App Store